FW5750 Weather Reports


Display with metric or nautical units.
time (UTC)temp
F
wind
direction
speed
MPH
gust
MPH
rain 1hr
in
rain 24hr
in
rain mn
in
humidity
%
barometer
mb
20260505022934 67 288 0.0 2.0 0.00 0.00 0.00 52 1013.8
20260505022432 67 279 2.0 2.0 0.00 0.00 0.00 52 1013.8
20260505021929 67 277 3.0 5.0 0.00 0.00 0.00 54 1013.6
20260505021425 67 270 0.0 2.0 0.00 0.00 0.00 52 1013.6
20260505020921 68 264 0.0 2.0 0.00 0.00 0.00 51 1013.7
20260505020416 68 233 5.0 7.0 0.00 0.00 0.00 51 1013.8
20260505015913 69 284 0.0 2.0 0.00 0.00 0.00 51 1013.7
20260505015411 69 265 2.0 5.0 0.00 0.00 0.00 51 1013.5
20260505014908 69 312 1.0 7.0 0.00 0.00 0.00 52 1013.6
20260505014405 69 290 1.0 5.0 0.00 0.00 0.00 53 1013.7
20260505013902 69 267 2.0 3.0 0.00 0.00 0.00 54 1013.6
20260505013358 69 285 1.0 3.0 0.00 0.00 0.00 54 1013.4
20260505012857 69 273 0.0 2.0 0.00 0.00 0.00 55 1013.5
20260505012354 69 272 1.0 3.0 0.00 0.00 0.00 54 1013.5
20260505011850 69 250 0.0 3.0 0.00 0.00 0.00 54 1013.4
20260505011347 69 266 1.0 2.0 0.00 0.00 0.00 54 1013.4
20260505010843 69 277 1.0 5.0 0.00 0.00 0.00 54 1013.3
20260505010339 70 249 2.0 2.0 0.00 0.00 0.00 54 1013.3
20260505005836 70 259 2.0 3.0 0.00 0.00 0.00 54 1013.2
20260505005333 70 265 0.0 5.0 0.00 0.00 0.00 54 1013.4
20260505004830 70 300 1.0 3.0 0.00 0.00 0.00 54 1013.3
20260505004326 70 246 2.0 5.0 0.00 0.00 0.00 53 1013.3
20260505003824 70 278 0.0 3.0 0.00 0.00 0.00 53 1013.2
20260505003321 70 280 1.0 2.0 0.00 0.00 0.00 53 1013.0
20260505002817 70 277 0.0 3.0 0.00 0.00 0.00 54 1013.1
20260505002314 70 284 0.0 2.0 0.00 0.00 0.00 54 1013.4
20260505001812 71 257 1.0 3.0 0.00 0.00 0.00 54 1012.9
20260505001309 71 267 1.0 2.0 0.00 0.00 0.00 53 1013.1
20260505000806 72 272 2.0 7.0 0.00 0.00 0.00 52 1013.1
20260505000304 72 265 1.0 2.0 0.00 0.00 0.00 51 1012.8
20260504235800 72 261 5.0 7.0 0.00 0.00 0.00 51 1012.9
20260504235256 72 270 1.0 2.0 0.00 0.00 0.00 50 1013.0
20260504234754 73 227 1.0 3.0 0.00 0.00 0.00 50 1013.0
20260504234252 73 291 4.0 8.0 0.00 0.00 0.00 49 1012.8
20260504233748 73 270 4.0 7.0 0.00 0.00 0.00 49 1012.9
20260504233243 73 258 3.0 5.0 0.00 0.00 0.00 49 1012.9
20260504232740 73 265 2.0 3.0 0.00 0.00 0.00 49 1012.9
20260504232237 74 253 3.0 3.0 0.00 0.00 0.00 49 1012.8
20260504231734 74 265 0.0 3.0 0.00 0.00 0.00 50 1012.8
20260504231230 74 283 2.0 8.0 0.00 0.00 0.00 49 1012.9
20260504230727 74 285 3.0 7.0 0.00 0.00 0.00 50 1012.9
20260504230225 75 259 1.0 2.0 0.00 0.00 0.00 50 1012.8
20260504225724 75 258 2.0 3.0 0.00 0.00 0.00 49 1012.7
20260504225219 75 306 1.0 3.0 0.00 0.00 0.00 49 1012.6
20260504224717 75 289 2.0 2.0 0.00 0.00 0.00 49 1012.8
20260504224214 75 274 1.0 3.0 0.00 0.00 0.00 49 1012.7
20260504223710 75 273 1.0 3.0 0.00 0.00 0.00 49 1012.8
20260504223205 75 271 0.0 3.0 0.00 0.00 0.00 48 1012.9
20260504222703 75 272 0.0 2.0 0.00 0.00 0.00 48 1012.8
20260504222200 75 259 2.0 3.0 0.00 0.00 0.00 46 1012.8
20260504221657 75 285 1.0 5.0 0.00 0.00 0.00 46 1012.8
20260504221154 76 276 1.0 3.0 0.00 0.00 0.00 45 1012.8
20260504220650 76 294 2.0 5.0 0.00 0.00 0.00 44 1013.0
20260504220148 76 269 3.0 7.0 0.00 0.00 0.00 44 1012.9
20260504215644 76 266 2.0 5.0 0.00 0.00 0.00 44 1013.0
20260504215142 77 264 2.0 7.0 0.00 0.00 0.00 43 1012.9
20260504214637 77 286 2.0 8.0 0.00 0.00 0.00 42 1012.8
20260504214134 78 250 4.0 7.0 0.00 0.00 0.00 43 1013.0
20260504213630 78 278 2.0 5.0 0.00 0.00 0.00 42 1012.9
20260504213127 78 262 2.0 7.0 0.00 0.00 0.00 43 1012.9
20260504212624 79 313 4.0 7.0 0.00 0.00 0.00 42 1012.8
20260504212121 78 274 4.0 8.0 0.00 0.00 0.00 41 1012.9
20260504211618 79 232 1.0 11.0 0.00 0.00 0.00 41 1013.0
20260504211114 79 30 2.0 7.0 0.00 0.00 0.00 41 1013.1
20260504210612 79 261 3.0 5.0 0.00 0.00 0.00 42 1012.9
20260504210108 79 254 3.0 8.0 0.00 0.00 0.00 41 1013.0
20260504205606 80 243 6.0 8.0 0.00 0.00 0.00 40 1012.9
20260504205103 79 273 2.0 5.0 0.00 0.00 0.00 44 1013.1
20260504204601 79 253 3.0 8.0 0.00 0.00 0.00 42 1013.2
20260504204100 78 253 3.0 5.0 0.00 0.00 0.00 42 1013.2
20260504203558 78 258 4.0 7.0 0.00 0.00 0.00 42 1013.4
20260504203055 78 258 6.0 13.0 0.00 0.00 0.00 43 1013.5
20260504202550 79 270 7.0 8.0 0.00 0.00 0.00 43 1013.6
20260504202048 80 242 4.0 7.0 0.00 0.00 0.00 46 1013.2
20260504201545 79 307 1.0 2.0 0.00 0.00 0.00 44 1013.5
20260504201043 78 274 1.0 5.0 0.00 0.00 0.00 46 1013.7
20260504200538 78 285 1.0 3.0 0.00 0.00 0.00 46 1013.5
20260504200036 78 252 3.0 7.0 0.00 0.00 0.00 45 1013.8
20260504195532 78 223 5.0 8.0 0.00 0.00 0.00 45 1014.0
20260504195028 78 247 2.0 5.0 0.00 0.00 0.00 45 1013.8
20260504194525 78 262 2.0 8.0 0.00 0.00 0.00 46 1014.0
20260504194020 78 263 3.0 5.0 0.00 0.00 0.00 47 1013.8
20260504193517 77 281 0.0 5.0 0.00 0.00 0.00 49 1014.0
20260504193016 78 271 1.0 7.0 0.00 0.00 0.00 48 1013.9
20260504192514 78 255 3.0 5.0 0.00 0.00 0.00 47 1014.3
20260504192012 77 287 1.0 8.0 0.00 0.00 0.00 46 1014.4
20260504191509 77 272 1.0 5.0 0.00 0.00 0.00 47 1014.6
20260504191005 78 263 4.0 7.0 0.00 0.00 0.00 47 1014.6
20260504190501 77 278 2.0 3.0 0.00 0.00 0.00 46 1014.7
20260504185957 77 257 3.0 5.0 0.00 0.00 0.00 47 1014.9
20260504185455 76 283 3.0 5.0 0.00 0.00 0.00 47 1014.8
20260504184951 76 303 3.0 5.0 0.00 0.00 0.00 47 1014.8
20260504184447 76 250 2.0 5.0 0.00 0.00 0.00 47 1014.9
20260504183942 76 257 5.0 10.0 0.00 0.00 0.00 47 1015.2
20260504183440 76 267 5.0 8.0 0.00 0.00 0.00 47 1015.1
20260504182938 77 275 1.0 5.0 0.00 0.00 0.00 47 1015.1
20260504182434 77 269 2.0 3.0 0.00 0.00 0.00 48 1015.0
20260504181932 76 266 2.0 3.0 0.00 0.00 0.00 48 1015.4
20260504181429 76 280 3.0 5.0 0.00 0.00 0.00 47 1015.3
20260504180927 76 279 0.0 3.0 0.00 0.00 0.00 48 1015.5
20260504180426 76 284 1.0 3.0 0.00 0.00 0.00 49 1015.3
20260504175924 75 249 2.0 5.0 0.00 0.00 0.00 48 1015.5
20260504175420 75 241 4.0 5.0 0.00 0.00 0.00 46 1015.4
20260504174918 74 280 1.0 3.0 0.00 0.00 0.00 48 1015.7
20260504174415 74 267 3.0 7.0 0.00 0.00 0.00 51 1015.7
20260504173913 75 220 5.0 8.0 0.00 0.00 0.00 49 1015.6
20260504173409 74 268 1.0 3.0 0.00 0.00 0.00 53 1015.7
20260504172907 73 291 2.0 8.0 0.00 0.00 0.00 48 1015.7
20260504172403 73 238 4.0 5.0 0.00 0.00 0.00 47 1015.7
20260504171859 73 230 3.0 10.0 0.00 0.00 0.00 47 1015.9
20260504171356 73 265 0.0 3.0 0.00 0.00 0.00 49 1016.0
20260504170853 75 218 5.0 7.0 0.00 0.00 0.00 47 1016.0
20260504170349 74 270 3.0 5.0 0.00 0.00 0.00 48 1016.1
20260504160308 68 266 3.0 5.0 0.00 0.00 0.00 51 1017.1
20260504150733 64 281 0.0 3.0 0.00 0.00 0.00 56 1017.8
20260504150230 64 305 3.0 5.0 0.00 0.00 0.00 57 1017.9
20260504141159 61 288 0.0 2.0 0.00 0.00 0.00 63 1018.3
20260504140656 60 131 0.0 2.0 0.00 0.00 0.00 62 1018.6
20260504140152 60 264 1.0 3.0 0.00 0.00 0.00 63 1018.6
20260504130620 52 280 0.0 0.0 0.00 0.00 0.00 96 1018.7
20260504130117 50 272 0.0 2.0 0.00 0.00 0.00 99 1018.5
20260504110508 39 276 0.0 0.0 0.00 0.00 0.00 99 1017.6
20260504100430 39 276 0.0 0.0 0.00 0.00 0.00 99 1017.8
20260504081823 40 276 0.0 0.0 0.00 0.00 0.00 99 1017.8
20260504081320 40 276 0.0 0.0 0.00 0.00 0.00 99 1017.9
20260504080816 40 276 0.0 0.0 0.00 0.00 0.00 99 1017.8
20260504080313 40 276 0.0 0.0 0.00 0.00 0.00 99 1017.8
20260504070240 41 276 0.0 0.0 0.00 0.00 0.00 99 1017.7
20260504060201 42 276 0.0 0.0 0.00 0.00 0.00 99 1018.2
20260504050629 43 276 0.0 0.0 0.00 0.00 0.00 99 1018.2
20260504050126 43 276 0.0 0.0 0.00 0.00 0.00 99 1018.2
20260504045623 43 276 0.0 0.0 0.00 0.00 0.00 99 1018.3
20260504045118 43 276 0.0 0.0 0.00 0.00 0.00 99 1018.1
20260504044616 43 276 0.0 0.0 0.00 0.00 0.00 99 1018.1
20260504044112 43 276 0.0 0.0 0.00 0.00 0.00 99 1018.1
20260504043610 43 276 0.0 0.0 0.00 0.00 0.00 99 1018.0
20260504043107 43 276 0.0 0.0 0.00 0.00 0.00 99 1018.1
20260504042604 43 276 0.0 0.0 0.00 0.00 0.00 99 1017.8
20260504042101 43 276 0.0 0.0 0.00 0.00 0.00 99 1018.0
20260504041556 44 276 0.0 0.0 0.00 0.00 0.00 99 1017.9
20260504041053 44 276 0.0 0.0 0.00 0.00 0.00 99 1017.8
20260504040550 44 276 0.0 0.0 0.00 0.00 0.00 99 1017.8
20260504040047 44 276 0.0 0.0 0.00 0.00 0.00 99 1018.0
20260504035544 44 276 0.0 0.0 0.00 0.00 0.00 99 1017.8
20260504035040 44 276 0.0 0.0 0.00 0.00 0.00 98 1017.8
20260504034538 44 276 0.0 0.0 0.00 0.00 0.00 98 1017.8
20260504034035 45 276 0.0 0.0 0.00 0.00 0.00 98 1017.8
20260504033533 45 276 0.0 0.0 0.00 0.00 0.00 97 1017.6
20260504033030 45 276 0.0 0.0 0.00 0.00 0.00 97 1017.6
20260504032527 45 276 0.0 0.0 0.00 0.00 0.00 97 1017.8
20260504032023 45 276 0.0 0.0 0.00 0.00 0.00 97 1017.4
20260504031520 45 276 0.0 0.0 0.00 0.00 0.00 96 1017.7
20260504031016 45 276 0.0 0.0 0.00 0.00 0.00 96 1017.5
20260504030514 46 276 0.0 0.0 0.00 0.00 0.00 96 1017.6
20260504030010 46 276 0.0 0.0 0.00 0.00 0.00 96 1017.7
20260504025507 46 276 0.0 0.0 0.00 0.00 0.00 96 1017.6
20260504025004 46 276 0.0 0.0 0.00 0.00 0.00 95 1017.5
20260504024501 46 276 0.0 0.0 0.00 0.00 0.00 94 1017.5
20260504023958 46 276 0.0 0.0 0.00 0.00 0.00 94 1017.5
20260504023455 46 276 0.0 0.0 0.00 0.00 0.00 94 1017.6